Flag for U.S.A. Weather past 2 weeks in Springfield, Missouri, U.S.A.

Now
19 °F

Overcast.


Feels Like: 12 °F
Forecast: 16 / 29 °F
Wind: 5 mph from Southeast

Location: Springfield Regional Airport

Current Time: Feb 27, 2015 at 11:27:13 PM

Latest Report: Feb 27, 2015 at 10:52 PM


Visibility: 10 mi

Pressure: 30.56 "Hg

Humidity: 74%

Dew point: 12 °F

Location of SpringfieldLocation

Historic Weather in Springfield — Graph

°F

Springfield temperature yesterday

Maximum temperature yesterday: 30 °F (at 12:52 AM)
Minimum temperature yesterday: 13 °F (at 11:52 PM)
Average temperature yesterday: 21 °F

Past Weeks' High & Low Weather Summary

 TemperatureHumidityPressure
High54 °F (Feb 14, 11:52 AM)96% (Feb 21, 10:52 AM)30.72 "Hg (Feb 21, 10:52 AM)
Low-3 °F (Feb 19, 1:52 AM)24% (Feb 15, 2:52 PM)29.79 "Hg (Feb 25, 3:52 PM)
Average24 °F62%30.23 "Hg
* Reported Feb 12 9:52 PM — Feb 27 9:52 PM, Springfield, Weather by CustomWeather, © 2015

Note: Actual official high and low records may vary slightly from our data, if they occured in-between our weather recording intervals... More about our weather records

Advertising

Springfield weather history for previous 24 hours

 ConditionsComfort  
Time TempWeatherWind HumidityBarometerVisibility
9:52 PM
Fri, Feb 27
19 °FMostly cloudy.6 mph74%30.58 "Hg10 mi
8:52 PM19 °FMostly cloudy.7 mph71%30.57 "Hg10 mi
7:52 PM20 °FOvercast.9 mph65%30.56 "Hg10 mi
6:52 PM22 °FOvercast.6 mph44%30.56 "Hg10 mi
5:52 PM22 °FMostly cloudy.9 mph42%30.55 "Hg10 mi
4:52 PM22 °FOvercast.6 mph44%30.55 "Hg10 mi
3:52 PM22 °FOvercast.7 mph42%30.56 "Hg10 mi
2:52 PM22 °FOvercast.5 mph44%30.57 "Hg10 mi
1:52 PM20 °FScattered clouds.No wind43%30.58 "Hg10 mi
12:52 PM19 °FPassing clouds.No wind47%30.61 "Hg10 mi
11:52 AM18 °FBroken clouds.10 mph49%30.62 "Hg10 mi
10:52 AM15 °FOvercast.8 mph56%30.63 "Hg10 mi
9:52 AM13 °FOvercast.3 mph59%30.65 "Hg10 mi
8:52 AM11 °FSunny.9 mph64%30.62 "Hg10 mi
7:52 AM8 °FSunny.10 mph69%30.61 "Hg10 mi
6:52 AM6 °FSunny.6 mph73%30.62 "Hg10 mi
5:52 AM7 °FClear.6 mph73%30.59 "Hg10 mi
4:52 AM8 °FClear.7 mph69%30.58 "Hg10 mi
3:52 AM9 °FClear.10 mph66%30.56 "Hg10 mi
2:52 AM10 °FClear.7 mph67%30.57 "Hg10 mi
1:52 AM11 °FClear.9 mph64%30.55 "Hg10 mi
12:52 AM13 °FClear.12 mph61%30.54 "Hg10 mi
11:52 PM
Thu, Feb 26
13 °FClear.12 mph61%30.54 "Hg10 mi
Weather by CustomWeather, © 2015

See weather overviewHow to use our weather pages